Weather History for Ogden Hill AFB, UT

Change the Weather History Date:

Saturday, February 8, 2014

  Actual Average Record
Temperature  
Mean Temperature 38 °F -  
Max Temperature 41 °F 34 °F 53 °F (2000)
Min Temperature 35 °F 21 °F 6 °F (2003)
Degree Days  
Heating Degree Days 27    
Moisture  
Dew Point 27 °F    
Average Humidity 66    
Maximum Humidity 87    
Minimum Humidity 42    
Precipitation  
Precipitation 0.56 in - - ()
Snow  
Snow 0.00 in - - ()
Snow Depth 5.00 in    
Sea Level Pressure  
Sea Level Pressure 29.92 in    
Wind  
Wind Speed 15 mph (South)    
Max Wind Speed 25 mph    
Max Gust Speed 33 mph    
Visibility 9 miles    
Events Rain    
Averages and records for this station are not official NWS values.
T = Trace of Precipitation, MM = Missing Value Source: NWS Daily Summary

Daily Weather History Graph

Daily Weather History Graph

Search for Another Location

Airport:

Trip Planner

Search our weather history database for the weather conditions in past years. The results will help you decide how hot, cold, wet, or windy it might be!

Date:

Astronomy

Feb. 08, 2014 Rise Set
Actual Time 7:31 AM MST 5:53 PM MST
Civil Twilight 7:02 AM MST 6:22 PM MST
Nautical Twilight 6:29 AM MST 6:54 PM MST
Astronomical Twilight 5:57 AM MST 7:26 PM MST
Moon 12:49 PM MST (2/8) 2:47 AM MST (2/8)
Length of Visible Light 11h 19m
Length of Day
10h 22m
Waxing Gibbous, 69% of the Moon is Illuminated
Feb 8
Waxing Gibbous
Feb 14
Full
Feb 22
Last Quarter
Mar 1
New
Mar 8
First Quarter

Hourly Weather History & Observations

Time (MST) Temp. Windchill Dew Point Humidity Pressure Visibility Wind Dir Wind Speed Gust Speed Precip Events Conditions
12:10 AM 35.6 °F 26.2 °F 24.8 °F 65% 29.82 in 10.0 mi South 15.0 mph - N/A   Overcast
12:15 AM 35.6 °F 25.2 °F 24.8 °F 65% 29.82 in 10.0 mi South 18.4 mph 25.3 mph N/A   Overcast
12:55 AM 35.6 °F 25.5 °F 24.8 °F 65% 29.82 in 10.0 mi South 17.3 mph - N/A   Overcast
12:58 AM 35.6 °F 26.2 °F 24.6 °F 64% 29.81 in 10.0 mi South 15.0 mph - 0.01 in   Overcast
1:03 AM 35.6 °F 25.2 °F 24.8 °F 65% 29.82 in 10.0 mi South 18.4 mph - N/A   Overcast
1:13 AM 35.6 °F 25.2 °F 24.8 °F 65% 29.81 in 10.0 mi South 18.4 mph - N/A   Overcast
1:37 AM 35.6 °F 24.0 °F 24.8 °F 65% 29.82 in 10.0 mi South 23.0 mph - N/A   Overcast
1:47 AM 35.6 °F 25.5 °F 24.8 °F 65% 29.82 in 10.0 mi South 17.3 mph - N/A   Mostly Cloudy
1:52 AM 35.6 °F 24.5 °F 24.8 °F 65% 29.82 in 10.0 mi South 20.7 mph - N/A   Mostly Cloudy
1:58 AM 36.1 °F 25.2 °F 24.8 °F 63% 29.81 in 10.0 mi South 20.7 mph - 0.00 in   Mostly Cloudy
2:13 AM 35.6 °F 24.8 °F 24.8 °F 65% 29.83 in 10.0 mi South 19.6 mph - N/A   Overcast
2:36 AM 35.6 °F 24.8 °F 24.8 °F 65% 29.82 in 10.0 mi South 19.6 mph - N/A   Mostly Cloudy
2:41 AM 35.6 °F 24.8 °F 24.8 °F 65% 29.82 in 10.0 mi South 19.6 mph - N/A   Scattered Clouds
2:46 AM 35.6 °F 25.5 °F 24.8 °F 65% 29.82 in 10.0 mi South 17.3 mph - N/A   Mostly Cloudy
2:51 AM 35.6 °F 25.9 °F 24.8 °F 65% 29.82 in 10.0 mi South 16.1 mph - N/A   Scattered Clouds
2:58 AM 36.1 °F 26.2 °F 24.4 °F 63% 29.81 in 10.0 mi South 17.3 mph - 0.00 in   Scattered Clouds
3:03 AM 35.6 °F 25.9 °F 24.8 °F 65% 29.82 in 10.0 mi South 16.1 mph - N/A   Mostly Cloudy
3:33 AM 35.6 °F 25.9 °F 24.8 °F 65% 29.83 in 10.0 mi South 16.1 mph - N/A   Mostly Cloudy
3:58 AM 36.5 °F 27.0 °F 24.4 °F 62% 29.83 in 10.0 mi South 16.1 mph - N/A   Overcast
4:03 AM 35.6 °F 25.9 °F 24.8 °F 65% 29.83 in 10.0 mi South 16.1 mph - N/A   Overcast
4:23 AM 37.4 °F 27.5 °F 24.8 °F 60% 29.84 in 10.0 mi South 18.4 mph - N/A   Overcast
4:33 AM 37.4 °F 27.5 °F 24.8 °F 60% 29.85 in 10.0 mi South 18.4 mph - N/A   Overcast
4:58 AM 37.0 °F 29.3 °F 24.8 °F 61% 29.87 in 10.0 mi SSW 11.5 mph - N/A   Overcast
5:43 AM 37.4 °F 30.8 °F 24.8 °F 60% 29.88 in 10.0 mi South 9.2 mph - N/A   Overcast
5:48 AM 37.4 °F 30.3 °F 24.8 °F 60% 29.88 in 10.0 mi South 10.4 mph - N/A   Overcast
5:53 AM 39.2 °F 31.6 °F 24.8 °F 56% 29.88 in 10.0 mi SSW 12.7 mph - N/A   Overcast
5:58 AM 38.5 °F 31.6 °F 24.1 °F 56% 29.88 in 10.0 mi South 10.4 mph - N/A   Overcast
6:13 AM 39.2 °F 32.0 °F 23.0 °F 52% 29.88 in 10.0 mi SSW 11.5 mph - N/A   Mostly Cloudy
6:23 AM 39.2 °F 32.0 °F 23.0 °F 52% 29.89 in 10.0 mi SSW 11.5 mph - N/A   Mostly Cloudy
6:28 AM 39.2 °F 31.2 °F 23.0 °F 52% 29.89 in 10.0 mi SSW 13.8 mph - N/A   Mostly Cloudy
6:43 AM 39.2 °F 31.2 °F 23.0 °F 52% 29.90 in 10.0 mi SSW 13.8 mph - N/A   Overcast
6:58 AM 39.6 °F 31.7 °F 22.8 °F 51% 29.89 in 10.0 mi SW 13.8 mph - N/A   Overcast
7:58 AM 39.7 °F 31.9 °F 22.1 °F 49% 29.90 in 10.0 mi SW 13.8 mph - N/A   Overcast
8:58 AM 39.4 °F 31.8 °F 23.0 °F 52% 29.94 in 10.0 mi SW 12.7 mph - N/A   Overcast
9:23 AM 39.2 °F 30.5 °F 23.0 °F 52% 29.97 in 10.0 mi SW 16.1 mph - N/A   Overcast
9:45 AM 41.0 °F 30.7 °F 21.2 °F 45% 29.97 in 10.0 mi WSW 25.3 mph 33.4 mph N/A Rain Light Rain
9:58 AM 40.5 °F 31.5 °F 20.8 °F 46% 29.97 in 10.0 mi WSW 18.4 mph - 0.01 in   Mostly Cloudy
10:28 AM 41.0 °F 33.1 °F 21.2 °F 45% 29.98 in 10.0 mi WSW 15.0 mph - N/A   Mostly Cloudy
10:58 AM 39.9 °F 32.5 °F 21.7 °F 48% 29.98 in 10.0 mi SW 12.7 mph - N/A   Mostly Cloudy
11:18 AM 39.2 °F 31.6 °F 21.2 °F 49% 29.99 in 10.0 mi SSW 12.7 mph - N/A   Mostly Cloudy
11:38 AM 41.0 °F 32.5 °F 21.2 °F 45% 30.00 in 10.0 mi SSE 17.3 mph 26.5 mph N/A   Mostly Cloudy
11:58 AM 39.9 °F 32.9 °F 22.8 °F 50% 30.00 in 10.0 mi South 11.5 mph - N/A   Overcast
12:27 PM 41.0 °F 33.1 °F 21.2 °F 45% 30.00 in 10.0 mi SW 15.0 mph - N/A Rain Light Rain
12:37 PM 41.0 °F 32.8 °F 19.4 °F 42% 30.00 in 10.0 mi SSW 16.1 mph 24.2 mph N/A Rain Light Rain
12:58 PM 39.6 °F 32.5 °F 24.3 °F 54% 30.01 in 10.0 mi South 11.5 mph - 0.00 in Rain Light Rain
1:03 PM 39.2 °F 30.8 °F 23.0 °F 52% 30.01 in 6.0 mi South 15.0 mph 23.0 mph N/A Rain Light Rain
1:58 PM 38.1 °F 32.9 °F 26.1 °F 62% 30.01 in 5.0 mi SSE 6.9 mph - 0.02 in Rain Light Rain
2:03 PM 39.2 °F 32.5 °F 26.6 °F 61% 30.00 in 4.0 mi South 10.4 mph - N/A Rain Light Rain
2:18 PM 37.4 °F 29.8 °F 28.4 °F 70% 30.00 in 3.0 mi South 11.5 mph - N/A Rain Light Rain
2:58 PM 36.1 °F 28.7 °F 29.3 °F 76% 30.00 in 4.0 mi SSE 10.4 mph - 0.08 in Rain Light Rain
3:31 PM 37.4 °F 29.3 °F 30.2 °F 75% 29.98 in 10.0 mi South 12.7 mph - N/A   Scattered Clouds
3:51 PM 35.6 °F 26.6 °F 30.2 °F 81% 29.98 in 8.0 mi South 13.8 mph - N/A   Mostly Cloudy
3:58 PM 36.5 °F 27.8 °F 30.0 °F 77% 29.98 in 9.0 mi South 13.8 mph - 0.05 in   Mostly Cloudy
4:58 PM 35.6 °F 28.0 °F 30.6 °F 82% 29.97 in 7.0 mi SSE 10.4 mph - 0.03 in   Overcast
5:03 PM 35.6 °F 28.0 °F 32.0 °F 87% 29.97 in 7.0 mi SSE 10.4 mph - N/A   Overcast
5:58 PM 36.3 °F 28.4 °F 30.7 °F 80% 29.96 in 10.0 mi SSE 11.5 mph - 0.05 in   Overcast
5:59 PM 37.4 °F 30.3 °F 32.0 °F 81% 29.96 in 10.0 mi SSE 10.4 mph - N/A   Overcast
6:09 PM 37.4 °F 30.3 °F 32.0 °F 81% 29.96 in 10.0 mi SSE 10.4 mph - N/A   Overcast
6:17 PM 37.4 °F 30.8 °F 32.0 °F 81% 29.96 in 10.0 mi SSE 9.2 mph - N/A   Overcast
6:27 PM 37.4 °F 29.8 °F 32.0 °F 81% 29.96 in 10.0 mi South 11.5 mph - N/A   Overcast
6:52 PM 37.4 °F 30.8 °F 32.0 °F 81% 29.95 in 9.0 mi SSE 9.2 mph - N/A   Overcast
6:58 PM 37.4 °F 31.4 °F 30.6 °F 76% 29.95 in 9.0 mi SSE 8.1 mph - 0.03 in   Overcast
7:23 PM 37.4 °F 31.4 °F 30.2 °F 75% 29.96 in 10.0 mi South 8.1 mph - N/A   Overcast
7:33 PM 37.4 °F 30.8 °F 32.0 °F 81% 29.96 in 10.0 mi South 9.2 mph - N/A   Overcast
7:43 PM 37.4 °F 30.8 °F 32.0 °F 81% 29.96 in 9.0 mi South 9.2 mph - N/A   Overcast
7:58 PM 37.9 °F 31.5 °F 30.6 °F 75% 29.96 in 9.0 mi South 9.2 mph - 0.05 in   Overcast
8:58 PM 37.8 °F 30.2 °F 30.7 °F 76% 29.96 in 10.0 mi South 11.5 mph - 0.09 in   Overcast
9:28 PM 37.4 °F 28.9 °F 32.0 °F 81% 29.98 in 8.0 mi South 13.8 mph - N/A   Overcast
9:43 PM 37.4 °F 29.8 °F 32.0 °F 81% 29.97 in 6.0 mi SE 11.5 mph - N/A   Overcast
9:53 PM 35.6 °F 27.5 °F 32.0 °F 87% 29.96 in 7.0 mi SSE 11.5 mph - N/A   Overcast
9:58 PM 36.1 °F 28.2 °F 31.6 °F 84% 29.95 in 7.0 mi SSE 11.5 mph - 0.10 in   Overcast
10:33 PM 37.4 °F 29.3 °F 33.8 °F 87% 29.97 in 10.0 mi SSE 12.7 mph - N/A   Overcast
10:34 PM 37.4 °F 29.3 °F 32.0 °F 81% 29.97 in 10.0 mi SSE 12.7 mph - N/A   Overcast
10:39 PM 37.4 °F 30.3 °F 32.0 °F 81% 29.96 in 10.0 mi SE 10.4 mph - N/A   Overcast
10:54 PM 37.4 °F 32.8 °F 32.0 °F 81% 29.96 in 10.0 mi SE 5.8 mph - N/A   Overcast
10:58 PM 37.2 °F 32.6 °F 33.3 °F 86% 29.95 in 10.0 mi SE 5.8 mph - 0.04 in   Overcast
11:58 PM 39.7 °F 31.5 °F 30.2 °F 69% 29.94 in 10.0 mi South 15.0 mph - N/A   Overcast